Home > Weather > Thalwil > Past weeks

Flag for Switzerland Past Weather in Thalwil, Zurich, Switzerland — Yesterday and Last 2 Weeks

Now
64 °F

Mild.


Feels Like: 64 °F
Forecast: 59 / 71 °F
Wind: 5 mph from West

Location: Zuerich-Fluntern

Current Time: Jun 25, 2016 at 9:08:07 AM

Latest Report: Jun 25, 2016 at 8:00 AM


Visibility: N/A

Pressure: 29.98 "Hg

Humidity: 95%

Dew Point: 62 °F

Location of ThalwilLocation

Past Weather in Thalwil — Graph

°F

Thalwil Temperature Yesterday

Maximum temperature yesterday: 88 °F (at 5:00 PM)
Minimum temperature yesterday: 65 °F (at 11:00 PM)
Average temperature yesterday: 77 °F

High & Low Weather Summary for the Past Weeks

 TemperatureHumidityPressure
High90 °F (Jun 23, 6:00 PM)97% (Jun 17, 12:00 AM)30.28 "Hg (Jun 17, 12:00 AM)
Low48 °F (Jun 17, 6:00 AM)33% (Jun 10, 5:00 PM)29.59 "Hg (Jun 16, 5:00 AM)
Average61 °F80%29.94 "Hg
* Reported Jun 10 7:00 AM — Jun 25 7:00 AM, Thalwil, Weather by CustomWeather, © 2016

Note: Actual official high and low records may vary slightly from our data, if they occured in-between our weather recording intervals... More about our weather records

Advertising

Thalwil Weather History for the Previous 24 Hours

Scroll right to see more
 ConditionsComfort  
Time TempWeatherWind HumidityBarometerVisibility
7:00 AM
Sat, Jun 25
63 °FMild.3 mph95%29.96 "HgN/A
6:00 AM63 °FMild.5 mph96%29.98 "HgN/A
5:00 AM64 °FMild.7 mph94%30.00 "HgN/A
4:00 AM63 °FMild.6 mph96%29.95 "HgN/A
3:00 AM65 °FMild.8 mph93%29.98 "HgN/A
2:00 AM64 °FMild.2 mph96%29.97 "HgN/A
1:00 AM65 °FMild.10 mph93%29.98 "HgN/A
12:00 AM65 °FMild.8 mph95%30.02 "HgN/A
11:00 PM
Fri, Jun 24
65 °FMild.3 mph95%29.97 "HgN/A
10:00 PM65 °FMild.13 mph88%29.99 "HgN/A
9:00 PM81 °FWarm.5 mph47%29.91 "HgN/A
8:00 PM83 °FPartly sunny.6 mph46%29.89 "HgN/A
7:00 PM86 °FWarm.6 mph41%29.88 "HgN/A
6:00 PM87 °FWarm.3 mph42%29.89 "HgN/A
5:00 PM88 °FHot.3 mph41%29.90 "HgN/A
4:00 PM88 °FWarm.5 mph41%29.92 "HgN/A
3:00 PM88 °FPleasantly warm.3 mph38%29.94 "HgN/A
2:00 PM86 °FPassing clouds.5 mph43%29.97 "HgN/A
1:00 PM86 °FWarm.5 mph51%29.99 "HgN/A
12:00 PM83 °FWarm.3 mph53%30.01 "HgN/A
11:00 AM80 °FWarm.3 mph64%30.03 "HgN/A
10:00 AM76 °FMild.3 mph67%30.05 "HgN/A
9:00 AM75 °FMild.2 mph70%30.06 "HgN/A
Weather by CustomWeather, © 2016

See weather overviewHow to use our weather pages